CCA4575 ZGHA-ZBAA

Flight info

Callsign CCA4575
Flight time 1h 50m
Altitude 35100
Route K0822S1070 GUD7X GUDRO W56 IDPOG DCT OBDON W56 LEBUN W57 BEKDO W157 AVBOX AVBOX7X
Aircraft A320/M-SDE3FGHIRWY/LB1

Departure

Time 2026-05-09 05:19
Airport Changsha Huanghua International Airport (ZGHA)

Arrival

Time 2026-05-09 07:09
Airport Beijing Capital International Airport (ZBAA)
Time Latitude Longitude Altitude Speed Heading
2026-05-09 04:52 28.18651 113.21447 214 ft 0 kts 358°
2026-05-09 04:53 28.18651 113.21446 214 ft 0 kts 358°
2026-05-09 04:54 28.18651 113.21447 214 ft 0 kts 358°
2026-05-09 05:08 28.18642 113.21447 218 ft 3 kts 360°
2026-05-09 05:08 28.18622 113.21446 215 ft 3 kts
2026-05-09 05:08 28.18602 113.21443 220 ft 3 kts 16°
2026-05-09 05:08 28.18584 113.21435 216 ft 3 kts 35°
2026-05-09 05:09 28.18572 113.21422 214 ft 2 kts 79°
2026-05-09 05:09 28.18571 113.21417 215 ft 1 kts 87°
2026-05-09 05:12 28.18571 113.21422 213 ft 2 kts 87°
2026-05-09 05:12 28.18573 113.21462 213 ft 8 kts 87°
2026-05-09 05:12 28.18575 113.21528 213 ft 9 kts 87°
2026-05-09 05:13 28.18578 113.21604 213 ft 10 kts 87°
2026-05-09 05:13 28.18582 113.21692 213 ft 12 kts 87°
2026-05-09 05:13 28.18580 113.21789 214 ft 13 kts 111°
2026-05-09 05:13 28.18496 113.21815 213 ft 14 kts 177°
2026-05-09 05:14 28.18393 113.21822 213 ft 16 kts 177°
2026-05-09 05:14 28.18320 113.21826 218 ft 17 kts 177°
2026-05-09 05:14 28.18199 113.21834 218 ft 18 kts 176°
2026-05-09 05:14 28.18071 113.21842 219 ft 18 kts 177°
2026-05-09 05:15 28.17895 113.21853 214 ft 20 kts 176°
2026-05-09 05:15 28.17809 113.21858 214 ft 16 kts 176°
2026-05-09 05:15 28.17745 113.21965 215 ft 15 kts 80°
2026-05-09 05:15 28.17759 113.22089 215 ft 17 kts 90°
2026-05-09 05:16 28.17758 113.22227 214 ft 18 kts 113°
2026-05-09 05:16 28.17650 113.22250 215 ft 17 kts 175°
2026-05-09 05:16 28.17570 113.22255 218 ft 14 kts 178°
2026-05-09 05:16 28.17492 113.22303 221 ft 14 kts 101°
2026-05-09 05:17 28.17502 113.22411 214 ft 10 kts 82°
2026-05-09 05:17 28.17579 113.22448 217 ft 11 kts 357°
2026-05-09 05:17 28.17584 113.22448 214 ft 0 kts 358°
2026-05-09 05:17 28.17591 113.22447 214 ft 7 kts 358°
2026-05-09 05:18 28.17825 113.22432 214 ft 66 kts 357°
2026-05-09 05:18 28.18483 113.22385 218 ft 120 kts 357°
2026-05-09 05:18 28.19455 113.22326 215 ft 159 kts 358°
2026-05-09 05:18 28.20643 113.22262 489 ft 172 kts 356°
2026-05-09 05:19 28.21819 113.22206 1155 ft 170 kts 352°
2026-05-09 05:19 28.22998 113.22076 1801 ft 169 kts 349°
2026-05-09 05:19 28.24164 113.21920 2336 ft 171 kts 349°
2026-05-09 05:19 28.25361 113.21757 2837 ft 176 kts 350°
2026-05-09 05:20 28.26566 113.21607 3467 ft 174 kts 350°
2026-05-09 05:20 28.27772 113.21574 4098 ft 180 kts 11°
2026-05-09 05:20 28.28821 113.22391 4605 ft 189 kts 50°
2026-05-09 05:20 28.29544 113.23659 5006 ft 200 kts 56°
2026-05-09 05:21 28.30331 113.25047 5262 ft 221 kts 54°
2026-05-09 05:21 28.31243 113.26551 5672 ft 240 kts 53°
2026-05-09 05:21 28.32195 113.28106 6358 ft 246 kts 53°
2026-05-09 05:21 28.33170 113.29708 7253 ft 248 kts 53°
2026-05-09 05:22 28.34174 113.31372 7686 ft 267 kts 54°
2026-05-09 05:22 28.35268 113.33200 8127 ft 289 kts 54°
2026-05-09 05:22 28.36035 113.34517 8654 ft 291 kts 56°
2026-05-09 05:22 28.37137 113.36491 9390 ft 301 kts 54°
2026-05-09 05:23 28.38309 113.38480 10294 ft 308 kts 54°
2026-05-09 05:23 28.39559 113.40561 10569 ft 331 kts 54°
2026-05-09 05:23 28.40899 113.42787 10917 ft 349 kts 54°
2026-05-09 05:23 28.42367 113.45005 11461 ft 354 kts 44°
2026-05-09 05:24 28.44296 113.46732 12105 ft 355 kts 27°
2026-05-09 05:24 28.46577 113.47766 12744 ft 354 kts 10°
2026-05-09 05:24 28.49020 113.48097 13349 ft 355 kts
2026-05-09 05:24 28.51495 113.48273 13978 ft 358 kts
2026-05-09 05:25 28.53992 113.48447 14574 ft 361 kts
2026-05-09 05:25 28.56513 113.48624 15244 ft 364 kts
2026-05-09 05:25 28.61614 113.48989 16322 ft 370 kts
2026-05-09 05:26 28.64157 113.49176 16847 ft 373 kts
2026-05-09 05:26 28.66757 113.49366 17374 ft 376 kts
2026-05-09 05:26 28.69377 113.49556 17891 ft 378 kts
2026-05-09 05:26 28.72014 113.49748 18399 ft 381 kts
2026-05-09 05:27 28.74673 113.49938 18911 ft 384 kts
2026-05-09 05:27 28.77353 113.50129 19425 ft 387 kts
2026-05-09 05:27 28.80051 113.50322 19920 ft 390 kts
2026-05-09 05:27 28.82773 113.50516 20412 ft 393 kts
2026-05-09 05:28 28.85507 113.50712 20870 ft 396 kts
2026-05-09 05:28 28.88265 113.50908 21330 ft 398 kts
2026-05-09 05:28 28.91043 113.51106 21757 ft 401 kts
2026-05-09 05:28 28.93839 113.51304 22180 ft 404 kts
2026-05-09 05:29 28.96655 113.51503 22563 ft 407 kts
2026-05-09 05:29 28.99494 113.51706 22972 ft 410 kts
2026-05-09 05:29 29.02348 113.51914 23373 ft 412 kts
2026-05-09 05:29 29.05218 113.52126 23791 ft 414 kts
2026-05-09 05:30 29.08104 113.52337 24188 ft 417 kts
2026-05-09 05:30 29.10968 113.52544 24588 ft 419 kts
2026-05-09 05:30 29.13891 113.52753 25019 ft 422 kts
2026-05-09 05:30 29.16826 113.52962 25400 ft 424 kts
2026-05-09 05:31 29.19778 113.53173 25762 ft 426 kts
2026-05-09 05:31 29.22744 113.53388 26127 ft 429 kts
2026-05-09 05:31 29.25737 113.53608 26475 ft 432 kts
2026-05-09 05:31 29.28749 113.53829 26804 ft 435 kts
2026-05-09 05:32 29.31773 113.54067 27161 ft 437 kts
2026-05-09 05:32 29.34811 113.54327 27513 ft 439 kts
2026-05-09 05:32 29.37867 113.54601 27880 ft 441 kts
2026-05-09 05:32 29.40936 113.54879 28212 ft 443 kts
2026-05-09 05:33 29.44017 113.55154 28548 ft 445 kts
2026-05-09 05:33 29.47112 113.55428 28866 ft 447 kts
2026-05-09 05:33 29.50224 113.55702 29204 ft 449 kts
2026-05-09 05:33 29.53337 113.55973 29672 ft 447 kts
2026-05-09 05:34 29.56433 113.56240 30104 ft 446 kts
2026-05-09 05:34 29.59528 113.56511 30538 ft 445 kts
2026-05-09 05:34 29.62615 113.56783 30975 ft 445 kts
2026-05-09 05:34 29.65696 113.57053 31430 ft 444 kts
2026-05-09 05:35 29.68771 113.57322 31824 ft 443 kts
2026-05-09 05:35 29.71837 113.57586 32208 ft 442 kts
2026-05-09 05:35 29.74904 113.57848 32596 ft 441 kts
2026-05-09 05:35 29.77964 113.58109 32963 ft 441 kts
2026-05-09 05:36 29.81018 113.58370 33383 ft 440 kts
2026-05-09 05:36 29.84025 113.58632 33774 ft 439 kts
2026-05-09 05:36 29.87070 113.58900 34140 ft 438 kts
2026-05-09 05:36 29.90110 113.59169 34482 ft 438 kts
2026-05-09 05:37 29.93136 113.59529 34820 ft 438 kts
2026-05-09 05:37 29.96101 113.60395 35058 ft 441 kts 18°
2026-05-09 05:37 30.01816 113.63179 35109 ft 449 kts 22°
2026-05-09 05:38 30.07557 113.66066 35108 ft 451 kts 21°
2026-05-09 05:38 30.13320 113.68943 35110 ft 451 kts 21°
2026-05-09 05:39 30.19078 113.71812 35107 ft 451 kts 21°
2026-05-09 05:39 30.24841 113.74690 35107 ft 451 kts 21°
2026-05-09 05:40 30.30600 113.77577 35110 ft 451 kts 21°
2026-05-09 05:40 30.36364 113.80470 35111 ft 451 kts 21°
2026-05-09 05:41 30.42126 113.83362 35109 ft 451 kts 21°
2026-05-09 05:41 30.47893 113.86260 35113 ft 451 kts 21°
2026-05-09 05:42 30.53652 113.89167 35113 ft 452 kts 21°
2026-05-09 05:42 30.59375 113.92058 35118 ft 452 kts 21°
2026-05-09 05:43 30.65138 113.94970 35119 ft 452 kts 22°
2026-05-09 05:43 30.70878 113.97952 35121 ft 452 kts 22°
2026-05-09 05:44 30.76598 114.00981 35117 ft 452 kts 22°
2026-05-09 05:44 30.82311 114.04047 35114 ft 452 kts 23°
2026-05-09 05:45 30.88003 114.07144 35114 ft 452 kts 23°
2026-05-09 05:45 30.93696 114.10246 35113 ft 452 kts 23°
2026-05-09 05:46 30.99397 114.13339 35115 ft 452 kts 23°
2026-05-09 05:46 31.05098 114.16432 35116 ft 452 kts 23°
2026-05-09 05:47 31.10796 114.19525 35112 ft 452 kts 23°
2026-05-09 05:47 31.16459 114.22606 35106 ft 452 kts 23°
2026-05-09 05:48 31.22157 114.25717 35106 ft 452 kts 23°
2026-05-09 05:48 31.27863 114.28839 35114 ft 453 kts 23°
2026-05-09 05:49 31.33598 114.31885 35118 ft 451 kts 18°
2026-05-09 05:49 31.39694 114.33282 35113 ft 445 kts 359°
2026-05-09 05:50 31.45890 114.33445 35112 ft 445 kts 360°
2026-05-09 05:50 31.52085 114.33641 35107 ft 445 kts 359°
2026-05-09 05:51 31.58278 114.33838 35103 ft 445 kts 359°
2026-05-09 05:51 31.64433 114.34016 35105 ft 446 kts 359°
2026-05-09 05:52 31.70636 114.34196 35098 ft 446 kts 359°
2026-05-09 05:52 31.76848 114.34379 35099 ft 447 kts 359°
2026-05-09 05:53 31.83066 114.34567 35101 ft 447 kts 359°
2026-05-09 05:53 31.89288 114.34758 35114 ft 448 kts 360°
2026-05-09 05:54 31.95514 114.34953 35121 ft 447 kts 359°
2026-05-09 05:54 32.01728 114.35143 35120 ft 446 kts 359°
2026-05-09 05:55 32.07940 114.35328 35123 ft 446 kts 359°
2026-05-09 05:55 32.14142 114.35510 35121 ft 446 kts 359°
2026-05-09 05:56 32.20302 114.35692 35119 ft 446 kts 359°
2026-05-09 05:56 32.26505 114.35891 35117 ft 446 kts
2026-05-09 05:57 32.32701 114.36358 35115 ft 447 kts
2026-05-09 05:57 32.38893 114.37016 35118 ft 447 kts
2026-05-09 05:58 32.45090 114.37648 35118 ft 447 kts
2026-05-09 05:58 32.51284 114.38219 35120 ft 447 kts
2026-05-09 05:59 32.57485 114.38770 35118 ft 446 kts
2026-05-09 05:59 32.63675 114.39330 35113 ft 446 kts
2026-05-09 06:00 32.69826 114.39899 35111 ft 446 kts
2026-05-09 06:00 32.76011 114.40470 35110 ft 446 kts
2026-05-09 06:01 32.82197 114.41048 35110 ft 446 kts
2026-05-09 06:01 32.88381 114.41625 35109 ft 446 kts
2026-05-09 06:02 32.94573 114.42203 35110 ft 446 kts
2026-05-09 06:02 33.00761 114.42782 35113 ft 446 kts
2026-05-09 06:03 33.06951 114.43372 35111 ft 446 kts
2026-05-09 06:03 33.13136 114.43955 35114 ft 446 kts
2026-05-09 06:04 33.19324 114.44527 35115 ft 446 kts
2026-05-09 06:04 33.25513 114.45109 35117 ft 446 kts
2026-05-09 06:05 33.31670 114.45695 35120 ft 447 kts
2026-05-09 06:05 33.37864 114.46277 35119 ft 447 kts
2026-05-09 06:06 33.44061 114.46858 35119 ft 446 kts
2026-05-09 06:06 33.50254 114.47438 35119 ft 446 kts
2026-05-09 06:07 33.56450 114.48022 35119 ft 446 kts
2026-05-09 06:07 33.62641 114.48615 35120 ft 446 kts
2026-05-09 06:08 33.68833 114.49192 35117 ft 446 kts
2026-05-09 06:08 33.75024 114.49766 35115 ft 446 kts
2026-05-09 06:09 33.81213 114.50352 35114 ft 446 kts
2026-05-09 06:09 33.87357 114.50928 35111 ft 446 kts
2026-05-09 06:10 33.93544 114.51509 35112 ft 446 kts
2026-05-09 06:10 33.99731 114.52092 35113 ft 446 kts
2026-05-09 06:11 34.05923 114.52676 35114 ft 446 kts
2026-05-09 06:11 34.12115 114.53260 35115 ft 446 kts
2026-05-09 06:12 34.18307 114.53846 35114 ft 446 kts
2026-05-09 06:12 34.24489 114.54437 35111 ft 446 kts
2026-05-09 06:13 34.30672 114.55033 35110 ft 446 kts
2026-05-09 06:13 34.36854 114.55614 35108 ft 445 kts
2026-05-09 06:14 34.41993 114.56101 35107 ft 446 kts
2026-05-09 06:14 34.49177 114.56790 35106 ft 445 kts
2026-05-09 06:15 34.55359 114.57376 35109 ft 446 kts
2026-05-09 06:15 34.61544 114.57967 35111 ft 446 kts
2026-05-09 06:16 34.67739 114.58556 35115 ft 446 kts
2026-05-09 06:16 34.73930 114.59143 35116 ft 447 kts
2026-05-09 06:17 34.79083 114.59630 35118 ft 447 kts
2026-05-09 06:17 34.85279 114.60216 35120 ft 447 kts
2026-05-09 06:18 34.91473 114.60808 35119 ft 447 kts
2026-05-09 06:18 34.97669 114.61407 35118 ft 446 kts
2026-05-09 06:19 35.03857 114.61997 35120 ft 446 kts
2026-05-09 06:19 35.10051 114.62591 35113 ft 446 kts
2026-05-09 06:20 35.16239 114.63192 35115 ft 446 kts
2026-05-09 06:20 35.22425 114.63792 35107 ft 446 kts
2026-05-09 06:21 35.28570 114.64375 35112 ft 446 kts
2026-05-09 06:21 35.34755 114.64972 35112 ft 446 kts
2026-05-09 06:22 35.40935 114.65574 35113 ft 446 kts
2026-05-09 06:22 35.47128 114.66177 35110 ft 446 kts
2026-05-09 06:23 35.53313 114.66771 35115 ft 446 kts
2026-05-09 06:23 35.59508 114.67364 35118 ft 447 kts
2026-05-09 06:24 35.65704 114.67971 35117 ft 446 kts
2026-05-09 06:24 35.71884 114.68580 35115 ft 446 kts
2026-05-09 06:25 35.78073 114.69177 35114 ft 446 kts
2026-05-09 06:25 35.84258 114.69782 35115 ft 446 kts
2026-05-09 06:26 35.90445 114.70394 35116 ft 446 kts
2026-05-09 06:26 35.96637 114.71001 35119 ft 446 kts
2026-05-09 06:27 36.02834 114.71616 35117 ft 447 kts
2026-05-09 06:27 36.09023 114.72224 35120 ft 446 kts
2026-05-09 06:28 36.15175 114.72826 35118 ft 446 kts
2026-05-09 06:28 36.21368 114.73428 35121 ft 446 kts
2026-05-09 06:29 36.27559 114.74033 35119 ft 446 kts
2026-05-09 06:29 36.33748 114.74650 35121 ft 446 kts
2026-05-09 06:30 36.39796 114.76408 35120 ft 450 kts 21°
2026-05-09 06:30 36.45477 114.79700 35116 ft 450 kts 23°
2026-05-09 06:31 36.51158 114.82985 35109 ft 451 kts 23°
2026-05-09 06:31 36.56844 114.86266 35109 ft 451 kts 23°
2026-05-09 06:32 36.62531 114.89565 35112 ft 451 kts 23°
2026-05-09 06:33 36.71069 114.94533 35110 ft 451 kts 23°
2026-05-09 06:33 36.76757 114.97843 35111 ft 451 kts 23°
2026-05-09 06:34 36.85249 115.02795 35115 ft 451 kts 23°
2026-05-09 06:34 36.90932 115.06125 35115 ft 451 kts 23°
2026-05-09 06:35 36.96618 115.09460 35116 ft 451 kts 23°
2026-05-09 06:35 37.02302 115.12800 35119 ft 451 kts 23°
2026-05-09 06:36 37.07986 115.16148 35120 ft 451 kts 23°
2026-05-09 06:36 37.13665 115.19495 35121 ft 451 kts 23°
2026-05-09 06:37 37.19347 115.22842 35120 ft 451 kts 23°
2026-05-09 06:37 37.24990 115.26171 35119 ft 451 kts 23°
2026-05-09 06:38 37.30668 115.29536 35116 ft 451 kts 23°
2026-05-09 06:38 37.36341 115.32899 35117 ft 451 kts 24°
2026-05-09 06:39 37.42018 115.36273 35118 ft 451 kts 23°
2026-05-09 06:39 37.47687 115.39648 35116 ft 451 kts 24°
2026-05-09 06:40 37.53358 115.43029 35115 ft 451 kts 24°
2026-05-09 06:40 37.59023 115.46413 35114 ft 451 kts 24°
2026-05-09 06:41 37.64688 115.49798 35113 ft 450 kts 24°
2026-05-09 06:41 37.70344 115.53196 35110 ft 450 kts 24°
2026-05-09 06:42 37.75964 115.56586 35109 ft 450 kts 24°
2026-05-09 06:42 37.81176 115.60958 35121 ft 453 kts 42°
2026-05-09 06:43 37.85445 115.66824 35127 ft 453 kts 47°
2026-05-09 06:43 37.89649 115.72761 35129 ft 453 kts 46°
2026-05-09 06:44 37.93846 115.78702 35123 ft 452 kts 47°
2026-05-09 06:44 37.98038 115.84644 35123 ft 452 kts 47°
2026-05-09 06:45 38.02228 115.90589 35122 ft 452 kts 47°
2026-05-09 06:45 38.06413 115.96540 35120 ft 452 kts 47°
2026-05-09 06:46 38.10595 116.02500 35113 ft 452 kts 47°
2026-05-09 06:46 38.14772 116.08459 35115 ft 452 kts 47°
2026-05-09 06:47 38.18949 116.14430 35116 ft 452 kts 47°
2026-05-09 06:47 38.23123 116.20408 35115 ft 452 kts 46°
2026-05-09 06:48 38.25449 116.23067 35114 ft 449 kts 33°
2026-05-09 06:48 38.28115 116.24986 35112 ft 445 kts 20°
2026-05-09 06:48 38.34025 116.27202 35106 ft 443 kts 13°
2026-05-09 06:49 38.39979 116.29241 35104 ft 444 kts 13°
2026-05-09 06:49 38.45946 116.31298 35104 ft 444 kts 13°
2026-05-09 06:50 38.51903 116.33363 35106 ft 444 kts 13°
2026-05-09 06:50 38.57881 116.35431 35061 ft 443 kts 13°
2026-05-09 06:51 38.60844 116.36455 34658 ft 440 kts 13°
2026-05-09 06:51 38.63789 116.37470 34233 ft 437 kts 13°
2026-05-09 06:51 38.66717 116.38445 33797 ft 433 kts 12°
2026-05-09 06:51 38.69642 116.39320 33364 ft 430 kts 10°
2026-05-09 06:52 38.72550 116.40123 32929 ft 426 kts
2026-05-09 06:52 38.75446 116.40894 32493 ft 423 kts
2026-05-09 06:52 38.78321 116.41661 32061 ft 421 kts
2026-05-09 06:52 38.81177 116.42437 31590 ft 419 kts 10°
2026-05-09 06:53 38.84042 116.43229 30844 ft 424 kts 10°
2026-05-09 06:53 38.86918 116.44043 30034 ft 421 kts 10°
2026-05-09 06:53 38.89764 116.44857 29231 ft 417 kts 11°
2026-05-09 06:53 38.92602 116.45668 28427 ft 419 kts 10°
2026-05-09 06:54 38.95443 116.46478 27633 ft 418 kts 10°
2026-05-09 06:54 38.98281 116.47286 26824 ft 415 kts 11°
2026-05-09 06:54 39.01085 116.48086 26018 ft 410 kts 11°
2026-05-09 06:54 39.03851 116.48877 25220 ft 405 kts 10°
2026-05-09 06:55 39.06590 116.49658 24416 ft 401 kts 10°
2026-05-09 06:55 39.09259 116.50417 23625 ft 396 kts
2026-05-09 06:55 39.11966 116.50793 22819 ft 388 kts 356°
2026-05-09 06:55 39.14627 116.50492 22017 ft 381 kts 351°
2026-05-09 06:56 39.17240 116.50085 21215 ft 376 kts 351°
2026-05-09 06:56 39.19826 116.49680 20413 ft 372 kts 351°
2026-05-09 06:56 39.22383 116.49279 19615 ft 368 kts 351°
2026-05-09 06:56 39.24917 116.48885 18803 ft 365 kts 351°
2026-05-09 06:57 39.27418 116.48497 18000 ft 361 kts 351°
2026-05-09 06:57 39.29902 116.48112 17200 ft 358 kts 351°
2026-05-09 06:57 39.32359 116.47730 16505 ft 352 kts 351°
2026-05-09 06:57 39.34767 116.47354 15846 ft 345 kts 351°
2026-05-09 06:58 39.37131 116.46982 15188 ft 340 kts 350°
2026-05-09 06:58 39.39457 116.46617 14543 ft 334 kts 351°
2026-05-09 06:58 39.41749 116.46262 13887 ft 329 kts 351°
2026-05-09 06:58 39.44005 116.45912 13233 ft 325 kts 350°
2026-05-09 06:59 39.46255 116.45761 12578 ft 325 kts
2026-05-09 06:59 39.48446 116.46430 11922 ft 326 kts 20°
2026-05-09 06:59 39.50393 116.47933 11295 ft 327 kts 37°
2026-05-09 06:59 39.52124 116.49781 10873 ft 318 kts 37°
2026-05-09 07:00 39.53809 116.51568 10472 ft 308 kts 37°
2026-05-09 07:00 39.55449 116.53304 10102 ft 302 kts 37°
2026-05-09 07:00 39.57038 116.54986 9717 ft 296 kts 37°
2026-05-09 07:00 39.58631 116.56672 9330 ft 288 kts 37°
2026-05-09 07:01 39.60143 116.58272 8964 ft 282 kts 37°
2026-05-09 07:01 39.61655 116.59873 8569 ft 279 kts 37°
2026-05-09 07:01 39.63150 116.61458 8202 ft 277 kts 36°
2026-05-09 07:01 39.64636 116.63034 7814 ft 273 kts 37°
2026-05-09 07:02 39.66173 116.64463 7441 ft 269 kts 25°
2026-05-09 07:02 39.67886 116.65321 7053 ft 262 kts
2026-05-09 07:02 39.69669 116.65569 6680 ft 255 kts 354°
2026-05-09 07:02 39.71414 116.65338 6299 ft 250 kts 350°
2026-05-09 07:03 39.73147 116.65069 5922 ft 250 kts 349°
2026-05-09 07:03 39.74865 116.64808 5619 ft 244 kts 350°
2026-05-09 07:03 39.76518 116.64559 5497 ft 236 kts 349°
2026-05-09 07:03 39.78113 116.64312 5389 ft 227 kts 349°
2026-05-09 07:04 39.79691 116.64064 5128 ft 230 kts 349°
2026-05-09 07:04 39.81291 116.63813 4829 ft 234 kts 349°
2026-05-09 07:04 39.82913 116.63560 4526 ft 236 kts 349°
2026-05-09 07:04 39.84563 116.63302 4193 ft 240 kts 350°
2026-05-09 07:05 39.86237 116.63041 3874 ft 244 kts 350°
2026-05-09 07:05 39.87908 116.62781 3557 ft 246 kts 350°
2026-05-09 07:05 39.89619 116.62513 3219 ft 248 kts 350°
2026-05-09 07:05 39.91303 116.62251 2896 ft 238 kts 350°
2026-05-09 07:06 39.92875 116.62007 2594 ft 218 kts 349°
2026-05-09 07:06 39.94334 116.61778 2313 ft 206 kts 349°
2026-05-09 07:06 39.95717 116.61561 2068 ft 193 kts 349°
2026-05-09 07:06 39.96995 116.61363 1794 ft 178 kts 348°
2026-05-09 07:07 39.98178 116.61176 1589 ft 165 kts 349°
2026-05-09 07:07 39.99259 116.61007 1370 ft 151 kts 348°
2026-05-09 07:07 40.00187 116.60861 1192 ft 146 kts 348°
2026-05-09 07:07 40.01115 116.60701 1014 ft 143 kts 348°
2026-05-09 07:08 40.02112 116.60559 810 ft 144 kts 348°
2026-05-09 07:08 40.03099 116.60406 640 ft 143 kts 349°
2026-05-09 07:08 40.04086 116.60251 448 ft 143 kts 348°
2026-05-09 07:08 40.05070 116.60094 270 ft 143 kts 349°
2026-05-09 07:09 40.06041 116.59942 125 ft 131 kts 352°
2026-05-09 07:09 40.06562 116.59860 122 ft 97 kts 353°
2026-05-09 07:09 40.07161 116.59761 121 ft 39 kts 353°
2026-05-09 07:09 40.07334 116.59736 122 ft 37 kts 353°
2026-05-09 07:10 40.07572 116.59713 120 ft 21 kts
2026-05-09 07:10 40.07719 116.59768 120 ft 20 kts 15°
2026-05-09 07:10 40.07800 116.59815 120 ft 13 kts 52°
2026-05-09 07:10 40.07814 116.59909 124 ft 9 kts 84°
2026-05-09 07:11 40.07813 116.60001 124 ft 11 kts 118°
2026-05-09 07:11 40.07736 116.60023 119 ft 13 kts 173°
2026-05-09 07:11 40.07673 116.60032 122 ft 14 kts 173°
2026-05-09 07:11 40.07567 116.60049 120 ft 17 kts 173°
2026-05-09 07:12 40.07443 116.60068 122 ft 19 kts 173°
2026-05-09 07:12 40.07324 116.60087 122 ft 15 kts 173°
2026-05-09 07:12 40.07284 116.60094 121 ft 15 kts 173°
2026-05-09 07:13 40.07169 116.60112 121 ft 18 kts 174°
2026-05-09 07:13 40.07038 116.60131 124 ft 20 kts 173°
2026-05-09 07:13 40.06892 116.60153 122 ft 22 kts 174°
2026-05-09 07:13 40.06729 116.60174 120 ft 24 kts 174°
2026-05-09 07:14 40.06594 116.60200 121 ft 20 kts 171°
2026-05-09 07:14 40.06448 116.60222 121 ft 22 kts 174°
2026-05-09 07:14 40.06290 116.60247 123 ft 21 kts 173°
2026-05-09 07:14 40.06191 116.60281 121 ft 14 kts 131°
2026-05-09 07:15 40.06192 116.60391 121 ft 12 kts 83°
2026-05-09 07:15 40.06200 116.60490 122 ft 10 kts 90°
2026-05-09 07:15 40.06166 116.60532 123 ft 7 kts 171°
2026-05-09 07:15 40.06123 116.60555 118 ft 5 kts 130°
2026-05-09 07:16 40.06122 116.60599 122 ft 4 kts 79°
2026-05-09 07:16 40.06126 116.60635 121 ft 3 kts 82°
2026-05-09 07:16 40.06128 116.60655 122 ft 1 kts 83°
2026-05-09 07:16 40.06128 116.60656 122 ft 0 kts 83°